Regional Weather Roundup
Issued by NWS

Home | Current Version | Previous Version | Graphics & Text | Print | Product List | Glossary On
Versions: 1 2 3 4 5 6 7 8 9 10 11 12 13 14 15 16 17 18 19 20 21 22 23 24 25 26 27 28 29 30 31 32 33 34 35 36 37 38 39 40 41 42 43 44 45 46 47 48 49 50
265
ASUS43 KIND 280000
RWRIN

WEATHER ROUNDUP FOR INDIANA
NATIONAL WEATHER SERVICE INDIANAPOLIS IN
800 PM EDT THU JUL 27 2017

NOTE: "FAIR" INDICATES FEW OR NO CLOUDS BELOW 12,000 FEET WITH NO
SIGNIFICANT WEATHER AND/OR OBSTRUCTIONS TO VISIBILITY.

* - STATION DOES NOT REPORT WEATHER SUCH AS PRECIPITATION OR FOG.

+ - STATION NOT QUALITY CONTROLLED BY THE NATIONAL WEATHER SERVICE.
    USE DATA WITH CAUTION...ESPECIALLY DEWPOINT AND RELATIVE
    HUMIDITY OBSERVATIONS.

INZ001>003-010>013-019-020-280100-
NORTHWEST INDIANA

CITY           SKY/WX    TMP DP  RH WIND       PRES   REMARKS
GARY /AIRPORT/ PTSUNNY   75  66  73 N17       29.94R
MICHIGAN CITY+ SUNNY     73  66  78 N13       29.93R
MONTICELLO +   PTSUNNY   78  73  85 N10       29.88R
6HR MIN TEMP:  78; 6HR MAX TEMP:  83;

RENSSELAER +   SUNNY     75  68  78 N12       29.91R

$$

LMZ046-743>745-280100-
SOUTHERN LAKE MICHIGAN

STATION/POSITION TIME  TEMP    WIND        PRES    WAVE
                       AIR SEA DIR/SP/G            HT
                 (UTC) (F)     (DEG/KT/KT) (MB)    (FT)
BURNS HARBOR     2340   73      20/ 17/ 21 1013.5S
MICHIGAN CITY    2330   73     360/ 21/ 23   N/A
5NW MICH CITY    2350   73 74   10/ 16/ 21   N/A     7

$$

INZ004-005-014>016-021>024-280100-
NORTH CENTRAL INDIANA

CITY           SKY/WX    TMP DP  RH WIND       PRES   REMARKS
ELKHART        MOSUNNY   81  68  65 N6        29.88S
GOSHEN         CLOUDY    79  70  74 W3        29.88R
6HR MIN TEMP:  76; 6HR MAX TEMP:  87; 6HR PCP: TRACE;

SOUTH BEND     MOSUNNY   77  68  73 N16       29.90R
6HR MIN TEMP:  77; 6HR MAX TEMP:  85;

WARSAW +       CLOUDY    77  70  78 NW5       29.88S

$$

INZ006>009-017-018-025>027-280100-
NORTHEAST INDIANA

CITY           SKY/WX    TMP DP  RH WIND       PRES   REMARKS
AUBURN +       MOSUNNY   81  70  69 CALM      29.88S
FORT WAYNE     MOSUNNY   81  71  71 NE8       29.87R
6HR MIN TEMP:  75; 6HR MAX TEMP:  83; 6HR PCP:  0.06;

KENDALLVILLE + SUNNY     81  67  64 CALM      29.89R

$$

INZ028-029-035-036-043>045-051>053-280100-
WEST CENTRAL INDIANA

CITY           SKY/WX    TMP DP  RH WIND       PRES   REMARKS
GREENCASTLE +  CLOUDY    75  72  88 CALM      29.89R
LAFAYETTE      CLOUDY    79  72  79 N8        29.87R
6HR MIN TEMP:  76; 6HR MAX TEMP:  83; 6HR PCP: TRACE;

TERRE HAUTE    CLOUDY    78  74  87 W3        29.87R
6HR MIN TEMP:  77; 6HR MAX TEMP:  81; 6HR PCP:  0.03;


$$

INZ030>032-037>040-046>048-054>057-064-065-280100-
CENTRAL INDIANA

CITY           SKY/WX    TMP DP  RH WIND       PRES   REMARKS
COLUMBUS       CLOUDY    79  70  73 W3        29.88S
FRANKFORT +    CLOUDY    81  74  80 N7        29.89S
6HR MIN TEMP:  79; 6HR MAX TEMP:  84;

GREENWOOD *+   CLOUDY   N/A N/A N/A W5        29.88S
INDIANAPOLIS   PTSUNNY   78  72  81 W7        29.87S
6HR MIN TEMP:  77; 6HR MAX TEMP:  82; 6HR PCP: TRACE;

-EAGLE CREEK   CLOUDY    79  73  82 W3        29.86F
6HR MIN TEMP:  76; 6HR MAX TEMP:  81; 6HR PCP:  0.05;

KOKOMO +       CLOUDY    80  73  79 N7        29.89R
6HR MIN TEMP:  79; 6HR MAX TEMP:  84; 6HR PCP: TRACE;

MT COMFORT *+  CLOUDY    75  72  88 NE5       29.89R
SHELBYVILLE    CLOUDY    79  72  79 W3        29.87R
6HR MIN TEMP:  77; 6HR MAX TEMP:  82; 6HR PCP:  0.01;


$$

INZ033-034-041-042-049-050-058-059-280100-
EAST CENTRAL INDIANA

CITY           SKY/WX    TMP DP  RH WIND       PRES   REMARKS
MUNCIE         CLOUDY    80  74  81 SW3       29.88R
6HR MIN TEMP:  76; 6HR MAX TEMP:  84; 6HR PCP:  0.15;

RICHMOND +     CLOUDY    72  72 100 W5        29.91R

$$

INZ060-061-067>069-081>083-085>088-280100-
SOUTHWEST INDIANA

CITY           SKY/WX    TMP DP  RH WIND       PRES   REMARKS
EVANSVILLE     CLOUDY    85  72  65 SW3       29.87S
6HR MIN TEMP:  81; 6HR MAX TEMP:  88;

HUNTINGBURG *+   N/A     82  76  81 S3        29.88S
6HR MIN TEMP:  79; 6HR MAX TEMP:  86;


$$

INZ062-063-066-070>080-084-089>092-280100-
SOUTH CENTRAL AND SOUTHEAST INDIANA

CITY           SKY/WX    TMP DP  RH WIND       PRES   REMARKS
BLOOMINGTON    CLOUDY    78  72  81 CALM      29.88S
6HR MIN TEMP:  78; 6HR MAX TEMP:  83; 6HR PCP:  0.02;

MADISON *+     CLOUDY    79  73  83 CALM      29.90S
SEYMOUR +      CLOUDY    82  70  65 N3        29.87S

$$





USA.gov is the U.S. government's official web portal to all federal, state and local government web resources and services.